Orbital Elements
Epoch 2013 Nov. 4.0 TT = JDT 2456600.5
T 2013 Oct. 28.36321 TT MPC
q 2.0747052 (2000.0) P Q
n 0.06831020 Peri. 356.23660 -0.22906104 -0.88856854
a 5.9266916 Node 106.67183 +0.90357113 -0.34596936
e 0.6499387 Incl. 24.51329 +0.36206388 +0.30124932
P 14.4
From 107 observations 2013 Nov. 9-2014 Mar. 7, mean residual 0".5.
|